• In Hungary
  • List of Countries
  • For 7 days
  • Water Temperature
  • Satellite Maps
  • Weather Map
  • News
  • Weather Widgets
  • user-avatar
    Login

    Hourly Weather Zaharvan

    Today, 18 June, Monday

    Time Temperature Precipitation Wind Pressure Humidity
    00:00 +10°C° 0 mm 2 mps 758 mmHg 78%
    01:00 +9°C° 0 mm 3 mps 758 mmHg 81%
    02:00 +9°C° 0 mm 3 mps 758 mmHg 79%
    03:00 +9°C° 0 mm 3 mps 758 mmHg 77%
    04:00 +10°C° 0 mm 3 mps 758 mmHg 74%
    05:00 +11°C° 0 mm 3 mps 758 mmHg 70%
    06:00 +12°C° 0 mm 3 mps 758 mmHg 65%
    07:00 +13°C° 0 mm 3 mps 758 mmHg 61%
    08:00 +14°C° 0.1 mm 4 mps 758 mmHg 60%
    09:00 +15°C° 0.1 mm 4 mps 757 mmHg 59%
    10:00 +17°C° 0 mm 4 mps 757 mmHg 55%
    11:00 +18°C° 0 mm 4 mps 757 mmHg 53%
    12:00 +17°C° 0 mm 5 mps 757 mmHg 52%
    13:00 +17°C° 0 mm 5 mps 757 mmHg 50%
    14:00 +19°C° 0 mm 5 mps 757 mmHg 47%
    15:00 +19°C° 0 mm 5 mps 757 mmHg 44%
    16:00 +19°C° 0 mm 5 mps 757 mmHg 41%
    17:00 +19°C° 0 mm 5 mps 757 mmHg 42%
    18:00 +17°C° 0 mm 5 mps 757 mmHg 42%
    19:00 +17°C° 0 mm 5 mps 757 mmHg 43%
    20:00 +15°C° 0 mm 4 mps 757 mmHg 49%
    21:00 +13°C° 0 mm 4 mps 757 mmHg 55%
    22:00 +12°C° 0 mm 3 mps 757 mmHg 60%
    23:00 +10°C° 0 mm 3 mps 757 mmHg 65%

    Tomorrow, 19 June, Tuesday

    Time Temperature Precipitation Wind Pressure Humidity
    00:00 +9°C° 0 mm 3 mps 757 mmHg 69%
    01:00 +7°C° 0 mm 3 mps 757 mmHg 73%
    02:00 +8°C° 0 mm 3 mps 757 mmHg 70%
    03:00 +8°C° 0 mm 3 mps 757 mmHg 67%
    04:00 +8°C° 0 mm 3 mps 757 mmHg 65%
    05:00 +9°C° 0 mm 3 mps 756 mmHg 60%
    06:00 +10°C° 0 mm 3 mps 756 mmHg 55%
    07:00 +12°C° 0 mm 3 mps 756 mmHg 50%
    08:00 +13°C° 0 mm 3 mps 755 mmHg 48%
    09:00 +15°C° 0 mm 4 mps 755 mmHg 45%
    10:00 +17°C° 0 mm 4 mps 754 mmHg 43%
    11:00 +18°C° 0 mm 4 mps 754 mmHg 41%
    12:00 +19°C° 0 mm 4 mps 754 mmHg 39%
    13:00 +20°C° 0 mm 4 mps 753 mmHg 38%
    14:00 +21°C° 0 mm 4 mps 753 mmHg 38%
    15:00 +21°C° 0 mm 4 mps 752 mmHg 37%
    16:00 +21°C° 0 mm 4 mps 752 mmHg 37%
    17:00 +21°C° 0 mm 4 mps 751 mmHg 40%
    18:00 +20°C° 0 mm 4 mps 751 mmHg 42%
    19:00 +20°C° 0 mm 4 mps 751 mmHg 44%
    20:00 +18°C° 0 mm 3 mps 750 mmHg 52%
    21:00 +16°C° 0 mm 3 mps 750 mmHg 59%
    22:00 +15°C° 0 mm 2 mps 750 mmHg 67%
    23:00 +12°C° 0 mm 3 mps 749 mmHg 74%

    Day after tomorrow, 20 June, Wednesday

    Time Temperature Precipitation Wind Pressure Humidity
    00:00 +11°C° 0 mm 3 mps 749 mmHg 80%
    01:00 +10°C° 0 mm 3 mps 749 mmHg 87%
    02:00 +10°C° 0 mm 2 mps 748 mmHg 86%
    03:00 +10°C° 0 mm 2 mps 748 mmHg 85%
    04:00 +10°C° 0 mm 2 mps 747 mmHg 85%
    05:00 +12°C° 0 mm 2 mps 746 mmHg 79%
    06:00 +14°C° 0 mm 2 mps 746 mmHg 73%
    07:00 +15°C° 0 mm 2 mps 745 mmHg 67%
    08:00 +16°C° 0 mm 2 mps 744 mmHg 62%
    09:00 +18°C° 0 mm 2 mps 743 mmHg 57%
    10:00 +19°C° 0 mm 2 mps 743 mmHg 52%
    11:00 +20°C° 0 mm 3 mps 742 mmHg 49%
    12:00 +21°C° 0 mm 3 mps 741 mmHg 46%
    13:00 +22°C° 0 mm 3 mps 741 mmHg 44%
    14:00 +22°C° 0 mm 3 mps 740 mmHg 41%
    15:00 +24°C° 0 mm 3 mps 739 mmHg 39%
    16:00 +24°C° 0 mm 3 mps 739 mmHg 37%
    17:00 +24°C° 0 mm 3 mps 739 mmHg 37%
    18:00 +24°C° 0 mm 3 mps 738 mmHg 36%
    19:00 +24°C° 0 mm 3 mps 738 mmHg 36%
    20:00 +22°C° 0 mm 4 mps 738 mmHg 43%
    21:00 +20°C° 0 mm 4 mps 737 mmHg 49%
    22:00 +18°C° 0 mm 4 mps 737 mmHg 55%
    23:00 +17°C° 0 mm 4 mps 737 mmHg 59%

    21 June, Thursday

    Time Temperature Precipitation Wind Pressure Humidity
    00:00 +15°C° 0 mm 4 mps 737 mmHg 63%
    01:00 +14°C° 0 mm 3 mps 737 mmHg 66%
    02:00 +14°C° 0 mm 3 mps 737 mmHg 67%
    03:00 +14°C° 0 mm 3 mps 737 mmHg 67%
    04:00 +14°C° 0 mm 3 mps 737 mmHg 67%
    05:00 +17°C° 0 mm 3 mps 737 mmHg 62%
    06:00 +19°C° 0 mm 3 mps 737 mmHg 56%
    07:00 +21°C° 0 mm 3 mps 737 mmHg 51%
    08:00 +22°C° 0 mm 3 mps 737 mmHg 46%
    09:00 +24°C° 0 mm 3 mps 737 mmHg 41%
    10:00 +25°C° 0 mm 3 mps 737 mmHg 36%
    11:00 +26°C° 0 mm 3 mps 737 mmHg 34%
    12:00 +26°C° 0 mm 3 mps 737 mmHg 33%
    13:00 +26°C° 0 mm 3 mps 737 mmHg 32%
    14:00 +26°C° 0 mm 3 mps 738 mmHg 33%
    15:00 +26°C° 0 mm 2 mps 738 mmHg 33%
    16:00 +26°C° 0 mm 2 mps 738 mmHg 33%
    17:00 +26°C° 0 mm 2 mps 739 mmHg 36%
    18:00 +25°C° 0 mm 2 mps 739 mmHg 39%
    19:00 +25°C° 0 mm 2 mps 739 mmHg 42%
    20:00 +22°C° 0 mm 3 mps 740 mmHg 48%
    21:00 +21°C° 0 mm 3 mps 740 mmHg 54%
    22:00 +20°C° 0 mm 4 mps 741 mmHg 60%
    23:00 +18°C° 0.1 mm 4 mps 741 mmHg 66%

    22 June, Friday

    Time Temperature Precipitation Wind Pressure Humidity
    00:00 +17°C° 0.1 mm 4 mps 741 mmHg 72%
    01:00 +15°C° 0.1 mm 4 mps 742 mmHg 79%
    02:00 +14°C° 0 mm 4 mps 742 mmHg 79%
    03:00 +14°C° 0 mm 5 mps 743 mmHg 80%
    04:00 +14°C° 0 mm 5 mps 743 mmHg 81%
    05:00 +14°C° 0 mm 5 mps 743 mmHg 77%
    06:00 +15°C° 0 mm 5 mps 744 mmHg 74%
    07:00 +15°C° 0 mm 6 mps 744 mmHg 70%
    08:00 +16°C° 0 mm 6 mps 744 mmHg 67%
    09:00 +17°C° 0 mm 6 mps 745 mmHg 64%
    10:00 +17°C° 0 mm 6 mps 745 mmHg 61%
    11:00 +19°C° 0 mm 6 mps 746 mmHg 60%
    12:00 +19°C° 0 mm 6 mps 746 mmHg 59%
    13:00 +20°C° 0 mm 7 mps 746 mmHg 57%
    14:00 +20°C° 0 mm 6 mps 747 mmHg 58%
    15:00 +20°C° 0 mm 6 mps 747 mmHg 58%
    16:00 +20°C° 0 mm 6 mps 748 mmHg 58%
    17:00 +20°C° 0 mm 6 mps 748 mmHg 59%
    18:00 +20°C° 0 mm 6 mps 749 mmHg 59%
    19:00 +19°C° 0 mm 6 mps 749 mmHg 60%
    20:00 +17°C° 0 mm 5 mps 749 mmHg 62%
    21:00 +17°C° 0 mm 5 mps 750 mmHg 63%
    22:00 +16°C° 0 mm 5 mps 750 mmHg 65%
    23:00 +15°C° 0 mm 4 mps 750 mmHg 68%

    23 June, Saturday

    Time Temperature Precipitation Wind Pressure Humidity
    00:00 +13°C° 0 mm 4 mps 751 mmHg 72%
    01:00 +12°C° 0 mm 4 mps 751 mmHg 76%
    02:00 +12°C° 0 mm 4 mps 751 mmHg 75%
    03:00 +12°C° 0 mm 3 mps 752 mmHg 75%
    04:00 +12°C° 0 mm 3 mps 752 mmHg 75%
    05:00 +13°C° 0 mm 3 mps 752 mmHg 71%
    06:00 +14°C° 0 mm 4 mps 752 mmHg 67%
    07:00 +15°C° 0 mm 4 mps 753 mmHg 63%
    08:00 +17°C° 0 mm 4 mps 753 mmHg 59%
    09:00 +18°C° 0 mm 4 mps 753 mmHg 55%
    10:00 +19°C° 0 mm 4 mps 753 mmHg 51%
    11:00 +20°C° 0 mm 4 mps 753 mmHg 49%
    12:00 +21°C° 0 mm 4 mps 753 mmHg 46%
    13:00 +22°C° 0 mm 4 mps 753 mmHg 43%
    14:00 +22°C° 0 mm 4 mps 754 mmHg 43%
    15:00 +24°C° 0 mm 3 mps 754 mmHg 42%
    16:00 +24°C° 0 mm 3 mps 754 mmHg 41%
    17:00 +24°C° 0 mm 3 mps 754 mmHg 41%
    18:00 +24°C° 0 mm 3 mps 754 mmHg 42%
    19:00 +24°C° 0 mm 2 mps 754 mmHg 43%
    20:00 +21°C° 0 mm 2 mps 754 mmHg 48%
    21:00 +19°C° 0 mm 2 mps 755 mmHg 53%
    22:00 +17°C° 0 mm 2 mps 755 mmHg 58%
    23:00 +16°C° 0 mm 2 mps 755 mmHg 60%
    Show more